Regional Weather Roundup
Issued by NWS State College, PA

Home | Current Version | Previous Version | Graphics & Text | Print | Product List | Glossary On
Versions: 1 2 3 4 5 6 7 8 9 10 11 12 13 14 15 16 17 18 19 20 21 22 23 24 25 26 27 28 29 30 31 32 33 34 35 36 37 38 39 40 41 42 43 44 45 46 47 48 49 50
000
ASUS41 KCTP 011610
RWRCTP

REGIONAL WEATHER ROUNDUP
NATIONAL WEATHER SERVICE STATE COLLEGE PA
1200 PM EDT WED JUL 01 2015

Note: "fair" indicates few or no clouds below 12,000 feet with no
significant weather and/or obstructions to visibility.

* = STATION THAT DOES NOT REPORT PRECIPITATION /E.G. RAIN...SNOW...ETC/
    THUNDER OR FOG.

PAZ002>004-007>009-013>016-020>023-029>032-011700-
WESTERN PENNSYLVANIA

CITY           SKY/WX    TMP DP  RH WIND       PRES   REMARKS
ERIE           CLOUDY    64  58  80 W12       29.88R
MEADVILLE      CLOUDY    64  57  78 W12       29.90R
FRANKLIN*      CLOUDY    66  57  72 W12G17    29.91R
NEW CASTLE     PTSUNNY   71  62  73 W10       29.91R
BEAVER COUNTY  CLOUDY    68  61  77 SW9       29.91R
BUTLER*        CLOUDY    66  63  88 W13       29.92S
PITTSBURGH INT CLOUDY    67  60  78 W9        29.92R
PITTSBURGH     CLOUDY    66  57  72 W14       29.92R
INDIANA*       CLOUDY    64  61  88 W10       29.95R
LATROBE        CLOUDY    66  63  88 W12       29.94R
WASHINGTON CO* NOT AVBL
$$

PAZ004>006-010>012-017>019-024>028-033>037-041-042-045-046-049>053-011700-
CENTRAL PENNSYLVANIA

CITY           SKY/WX    TMP DP  RH WIND       PRES   REMARKS
BRADFORD       CLOUDY    66  58  75 NW13G21   29.85R
DUBOIS         LGT RAIN  64  61  90 SW13      29.88R FOG
CLEARFIELD     CLOUDY    66  59  78 SW12G21   29.88R
JOHNSTOWN      CLOUDY    62  55  77 W12G20    29.94R
ALTOONA        CLOUDY    70  58  65 W13       29.92R
STATE COLLEGE  CLOUDY    68  59  73 W12       29.88R
WILLIAMSPORT   MOSUNNY   75  61  61 W12G18    29.81R
SELINSGROVE    PTSUNNY   74  61  63 SW8       29.84R
FT INDIANTOWN  MOSUNNY   76  62  61 SW8       29.83R
CAPITAL CITY   MOSUNNY   79  62  56 W13G20    29.84R
HARRISBURG     MOSUNNY   79  62  56 NW13      29.83R
YORK           SUNNY     77  64  64 W12       29.86R
$$

PAZ038>040-043-044-047-048-054-055-060>062-067>071-011700-
EASTERN PENNSYLVANIA

CITY           SKY/WX    TMP DP  RH WIND       PRES   REMARKS
SCRANTON       CLOUDY    71  60  68 SW9       29.82R
MOUNT POCONO   CLOUDY    66  58  75 W10G20    29.86R
ALLENTOWN      CLOUDY    76  64  66 W7        29.82R
QUAKERTOWN*    PTSUNNY   75  64  69 SW7       29.84S
READING        PTSUNNY   77  64  64 W7        29.82R
LANCASTER      MOSUNNY   77  64  64 W9G22     29.84R
COATESVILLE    SUNNY     75  64  69 W6        29.86R
POTTSTOWN      MOSUNNY   77  64  64 W6        29.84S
BLUE BELL      MOSUNNY   79  66  65 SW10      29.83R
DOYLESTOWN     MOSUNNY   76  63  64 VRB6      29.82S
WILLOW GROVE   NOT AVBL
NORTH PHILA    MOSUNNY   81  63  54 W12       29.83S
PHILADELPHIA   MOSUNNY   80  63  55 SW12      29.83S
$$


USA.gov is the U.S. government's official web portal to all federal, state and local government web resources and services.